SCP
0 0 0 0 0 0 0 0 0 0 0 0 0 0 0 0 0 0 0 0 0 0 0 0 0 0 0 0 0 0 0 0 0 0 0 0 0 0
0 0 0 0 0 0 0 0 0 0 0 0 0 0 0 0 0 0 0 0 0 0 0 0 0 0 0 0 0 0 0 0 0 0 0 0 0 0
0 0 0 0 0 0 0 0 0 0 0 0 0 0 0 0 0 0 0 0 0 0 0 0 0 0 0 0 0 0 0 0 0 0 0 0 0 0
0 0 0 0 0 0 0 0 0 0 0 0 0 0 0 0 0 0 0 0 0 0 0 0 0 0 0 0 0 0 0 0 0 0 0 0 0 0
0 0 0 0 0 0 0 0 0 0 0 0 0 0 0 0 0 0 0 0 0 0 0 0 0 0 0 0 0 0 0 0 0 0 0 0 0 0
0 0 0 0 0 0 0 0 0 0 0 0 0 0 0 0 0 0 0 0 0 0 0 0 0 0 0 0 0 0 0 0 0 0 0 0 0 0
0 0 0 0 0 0 0 0 0 0 0 0 0 -0 -0 -0 -0 0 0 0 0 0 0 0 0 0 0 0 0 0 0 0 0 0 0 0 0 0
0 0 0 0 0 0 0 0 0 0 0 0 0 0 -0 -0 -0 -0 -0 -0 -0 -0 -0 -0 0 0 0 0 0 0 0 0 0 0 0 0 0 0
0 0 0 0 0 0 0 0 0 0 0 0 0 0 0 -0 -0 -0 -0 -0 -0 -0 -0 -0 -0 0 0 0 0 0 0 0 0 0 0 0 0 0
0 0 0 0 0 0 0 0 0 0 0 0 0 0 0 0 0 -0 -0 -0 -0 -0 -0 0 0 0 0 0 0 0 0 0 0 0 0 0 0 0
0 0 0 0 0 0 0 0 0 0 0 0 0 0 0 0 0 0 0 -0 -0 0 0 0 0 0 0 0 0 0 0 0 0 0 0 0 0 0
0 0 0 0 0 0 0 0 0 0 0 0 0 0 0 0 0 0 0 0 0 0 0 0 0 0 0 0 0 0 0 0 0 0 0 0 0 0
0 0 0 0 0 0 0 0 0 0 0 0 0 0 0 0 0 0 0 0 0 0 0 0 0 0 0 0 0 0 0 0 0 0 0 0 0 0
0 0 0 0 0 0 0 0 0 0 0 0 0 0 0 0 0 0 0 0 0 0 0 0 0 0 0 0 0 0 0 0 0 0 0 0 0 0
0 0 0 0 0 0 0 0 0 0 0 0 0 0 0 0 0 0 0 0 0 0 0 0 0 0 0 0 0 0 0 0 0 0 0 0 0 0
0 0 0 0 0 0 0 0 0 0 0 0 0 0 0 0 0 0 0 0 0 0 0 0 0 0 0 0 0 0 0 0 0 0 0 0 0 0
0 0 0 0 0 0 0 0 0 0 0 0 0 0 0 0 0 0 0 0 0 0 0 0 0 0 0 0 0 0 0 0 0 0 0 0 0 0
0 0 0 0 0 0 0 0 0 0 0 0 0 0 0 0 0 0 0 0 0 0 0 0 0 0 0 0 0 0 0 0 0 0 0 0 0 0
0 0 0 0 0 0 0 0 0 0 0 0 0 0 0 0 0 0 0 0 0 0 0 0 0 0 0 0 0 0 0 0 0 0 0 0 0 0
0 0 0 0 0 0 0 0 0 0 0 0 0 0 0 0 0 0 0 0 0 0 0 0 0 0 0 0 0 0 0 0 0 0 0 0 0 0
0 0 0 0 0 0 0 0 0 0 0 0 0 0 0 0 0 0 0 0 0 0 0 0 0 0 0 0 0 0 0 0 0 0 0 0 0 0
0 0 0 0 0 0 0 0 0 0 0 0 0 0 0 0 0 0 0 0 0 0 0 0 0 0 0 0 0 0 0 0 0 0 0 0 0 0
0 0 0 0 0 0 0 0 0 0 0 0 0 0 0 0 0 0 0 0 0 0 0 0 0 0 0 0 0 0 0 0 0 0 0 0 0 0
Wind_Speed
6 6 4 4 4 4 4 4 4 4 4 4 4 4 3 4 8 7 7 13 18 19 17 17 17 17 17 20 24 27 25 20 19 19 20 22 22 21
4 5 5 4 4 4 4 4 4 4 5 4 4 4 5 6 11 9 9 15 17 19 17 15 16 16 16 18 22 24 23 21 21 22 25 24 22 20
5 5 6 5 4 4 3 3 3 3 4 4 3 4 5 6 7 7 7 8 7 15 17 15 14 16 16 17 21 25 26 25 24 25 26 26 25 22
5 5 6 4 5 3 3 3 2 3 3 5 3 3 5 6 7 8 7 7 7 12 16 15 13 14 15 17 20 24 26 26 25 25 26 26 24 22
3 3 3 2 2 1 1 1 1 1 2 3 4 3 4 5 7 8 8 7 7 10 13 14 12 12 14 17 20 23 24 25 26 25 23 23 23 23
7 7 6 5 3 2 1 1 1 1 2 3 4 4 4 5 5 7 8 5 6 5 9 8 8 10 13 16 19 21 23 25 27 26 25 23 23 23
9 9 9 12 14 9 6 4 2 1 2 3 5 5 4 4 5 5 9 8 7 4 4 4 4 5 6 11 16 19 22 25 27 28 27 26 25 25
8 8 8 10 13 13 13 12 10 6 5 4 5 7 7 5 5 6 8 9 7 3 3 4 3 5 6 5 10 16 21 23 26 27 27 27 26 26
6 6 6 8 9 6 9 11 11 13 12 8 7 8 8 7 7 9 8 10 10 5 3 5 3 6 6 7 13 14 17 21 23 25 27 28 28 28
6 5 5 6 8 9 7 6 5 7 11 8 6 8 9 8 8 10 12 12 11 7 5 7 4 5 6 7 13 15 15 19 22 24 27 28 29 29
5 6 7 6 12 15 10 8 7 6 11 15 17 18 23 24 19 10 10 11 11 6 5 5 5 5 5 7 9 16 17 17 19 23 25 27 27 28
3 5 10 11 13 15 9 7 7 8 8 9 11 15 14 16 20 12 8 10 11 8 5 5 5 4 5 5 7 8 11 17 20 22 23 24 25 18
3 4 5 14 15 15 11 5 10 11 7 6 7 8 8 9 9 8 8 9 11 10 5 5 5 6 7 4 3 6 8 8 10 14 19 23 25 22
4 4 6 15 15 14 9 11 15 11 5 6 7 7 7 7 8 11 13 13 13 12 9 9 8 8 8 7 5 4 6 7 8 8 8 15 22 27
3 8 11 14 12 9 11 14 11 6 6 7 8 8 8 10 11 10 12 12 13 13 11 12 12 10 11 10 5 4 4 5 7 7 7 7 8 10
3 6 10 11 9 10 10 8 6 6 7 7 8 9 9 10 10 9 10 10 10 11 10 12 12 13 14 13 9 7 6 5 6 7 6 5 6 8
4 3 4 5 5 6 6 6 6 6 6 7 8 9 9 10 10 9 10 11 12 12 11 9 9 11 15 14 10 10 8 6 6 7 7 6 5 8
5 3 4 5 5 6 7 7 7 7 8 8 9 9 10 11 11 10 10 11 12 12 12 10 8 9 10 12 14 12 11 8 5 5 5 6 6 6
3 3 3 4 5 5 6 6 7 8 8 8 9 10 10 11 11 12 12 12 12 13 12 10 10 11 13 12 4 6 10 9 8 5 4 4 6 7
2 3 3 4 4 4 5 6 7 8 8 8 9 9 10 11 12 12 12 14 14 14 13 12 12 13 14 11 6 2 5 8 8 7 5 5 6 9
4 4 4 5 5 5 6 7 7 8 9 9 10 10 10 11 12 12 13 19 18 14 15 13 12 13 6 7 6 4 5 8 6 7 8 8 5 4
4 4 5 5 5 5 5 6 7 8 9 9 10 10 11 12 13 15 14 14 13 13 14 10 6 5 4 7 8 9 9 11 15 18 13 9 9 9
5 5 5 6 6 5 5 7 9 9 9 10 11 11 13 13 13 13 14 13 11 10 7 3 0 2 5 10 12 13 17 14 12 12 12 17 20 22
Wind_Direction
233 230 226 232 215 207 202 191 201 252 272 271 278 286 269 266 263 260 250 257 264 262 253 243 235 233 235 234 229 221 210 196 192 194 203 209 214 215
235 229 233 233 223 211 205 204 200 215 254 255 256 274 286 283 278 268 259 256 260 269 271 260 240 230 232 234 228 211 198 193 194 197 201 203 209 212
257 238 242 233 218 213 200 195 201 197 246 271 265 282 285 281 284 275 266 259 260 267 271 274 259 232 227 231 220 200 194 194 196 201 201 201 204 206
274 262 255 243 223 209 192 193 193 198 225 273 287 293 288 286 284 281 274 265 258 261 262 264 273 248 226 222 212 200 197 195 197 203 203 200 199 201
332 311 292 253 225 165 153 162 200 226 227 261 283 281 290 296 298 292 282 271 262 258 257 256 264 263 235 220 212 203 199 197 196 200 201 197 196 199
38 32 29 38 40 39 32 334 303 295 273 271 280 282 278 291 295 299 298 288 273 260 255 251 253 264 248 227 217 208 203 201 199 198 199 197 195 198
35 29 32 33 29 24 16 8 356 311 294 285 289 292 288 300 298 299 298 300 285 250 249 238 233 247 248 238 226 216 209 206 204 201 200 199 197 198
32 26 27 27 17 10 1 357 355 345 329 304 295 293 294 288 288 291 296 298 294 267 242 256 208 236 240 236 233 219 214 212 209 205 203 202 201 201
27 26 23 15 9 345 352 3 355 342 330 314 301 298 300 297 294 292 285 282 280 280 258 266 236 242 240 239 243 232 217 214 213 211 207 204 203 203
13 17 13 355 345 353 359 356 348 341 324 314 298 294 296 292 279 281 282 279 275 265 232 260 242 233 236 231 230 229 225 217 214 214 212 208 205 205
6 5 1 342 338 348 351 341 340 329 324 319 315 310 305 301 295 289 285 283 278 266 225 240 247 238 230 229 224 220 223 224 221 218 216 213 208 206
1 3 353 339 337 342 341 341 329 314 320 326 319 311 304 298 297 284 274 277 282 280 244 231 238 233 252 230 218 214 219 222 222 223 220 215 209 207
358 347 331 338 340 337 342 336 314 328 345 323 305 300 302 303 304 302 291 277 273 269 276 275 255 237 241 248 237 215 210 211 215 223 224 220 213 204
345 324 325 341 344 347 346 331 338 350 336 315 309 304 304 304 307 308 304 297 286 281 277 271 267 256 248 238 236 230 208 204 207 212 209 215 215 206
324 338 345 349 351 348 342 351 358 350 328 321 312 306 304 301 298 296 294 290 286 279 271 263 263 263 253 243 215 202 204 203 203 207 198 198 202 195
346 354 353 349 351 346 348 349 345 328 323 316 307 301 299 297 294 294 297 298 292 284 267 255 254 252 255 245 218 199 192 191 193 202 193 186 189 185
20 13 353 346 344 340 336 335 333 326 321 312 307 304 301 298 293 293 291 289 283 281 279 264 250 250 248 243 220 201 191 191 188 181 177 180 181 171
25 353 341 336 332 329 328 326 323 320 319 315 308 303 301 298 296 294 289 282 278 274 271 269 260 258 257 246 223 196 188 184 174 162 154 163 153 140
12 321 313 314 313 314 312 309 308 308 307 301 298 298 297 295 293 292 290 284 279 275 270 263 256 249 249 242 245 204 176 166 163 155 127 123 144 146
291 285 290 300 302 301 303 300 298 299 297 294 292 290 290 290 290 289 287 284 282 280 275 262 251 241 238 235 189 136 128 151 157 151 118 90 89 120
307 304 295 296 296 295 296 297 295 294 293 295 292 291 292 291 290 289 287 284 283 279 273 265 256 234 196 150 135 122 94 72 105 142 135 118 104 99
283 286 287 283 281 281 286 292 294 293 294 294 295 296 294 292 293 293 288 285 281 276 272 265 234 181 153 159 144 123 103 91 82 82 86 118 146 153
282 286 288 293 294 296 295 298 297 296 295 295 295 295 293 294 294 290 287 283 280 277 266 258 216 89 107 125 122 116 110 106 97 87 79 94 102 110